Pine Ridge, SD

10:12 PM MDT on April 22, 2018 (GMT -0600)
Pine Ridge

Weather History for KIEN - February, 2013

Change the Weather History Date:

Saturday, February 23, 2013

  Actual Average Record
Temperature  
Mean Temperature 30 °F 29 °F  
Max Temperature 49 °F 42 °F 61 °F (2002)
Min Temperature 10 °F 15 °F -8 °F (2003)
Degree Days  
Heating Degree Days 35 36  
Month to date heating degree days 797 897  
Since 1 July heating degree days 4924 5174  
Cooling Degree Days 0 0  
Month to date cooling degree days 0 0  
Year to date cooling degree days 0 0  
Moisture  
Dew Point 18 °F    
Average Humidity 60    
Maximum Humidity 92    
Minimum Humidity 28    
Precipitation  
Precipitation 0.00 in 0.01 in 0.20 in (2017)
Month to date precipitation 0.12 0.37  
Year to date precipitation 0.88 0.69  
Sea Level Pressure  
Sea Level Pressure 29.76 in    
Wind  
Wind Speed 5 mph (WNW)    
Max Wind Speed 17 mph    
Max Gust Speed 21 mph    
Visibility 10 miles    
Events      
T = Trace of Precipitation, MM = Missing Value Source: NWS Daily Summary

Daily Weather History Graph

Daily Weather History Graph

Search for Another Location

Airport or City:

Astronomy

Feb. 23, 2013 Rise Set
Actual Time 6:35 AM MST 5:32 PM MST
Civil Twilight 6:06 AM MST 6:00 PM MST
Nautical Twilight 5:33 AM MST 6:33 PM MST
Astronomical Twilight 5:00 AM MST 7:06 PM MST
Moon 3:43 PM MST 5:00 AM MST
Length of Visible Light 11h 54m
Length of Day
10h 56m
Waxing Gibbous, 95% of the Moon is Illuminated
Feb 23
Waxing Gibbous
Feb 25
Full
Mar 4
Last Quarter
Mar 11
New
Mar 19
First Quarter

Hourly Weather History & Observations

Time (MST) Temp. Windchill Dew Point Humidity Pressure Visibility Wind Dir Wind Speed Gust Speed Precip Events Conditions
12:52 AM 21.0 °F 16.2 °F 16.0 °F 81% 29.85 in 10.0 mi WSW 3.5 mph - N/A   Clear
1:52 AM 21.0 °F - 14.0 °F 74% 29.83 in 10.0 mi Calm Calm - N/A   Clear
2:52 AM 16.0 °F - 10.9 °F 81% 29.81 in 10.0 mi Calm Calm - N/A   Clear
3:52 AM 12.9 °F - 10.0 °F 88% 29.80 in 10.0 mi Calm Calm - N/A   Clear
4:52 AM 12.0 °F - 8.1 °F 84% 29.79 in 10.0 mi Calm Calm - N/A   Clear
5:52 AM 10.9 °F - 7.0 °F 84% 29.79 in 10.0 mi Calm Calm - N/A   Clear
6:52 AM 15.1 °F 7.7 °F 10.0 °F 80% 29.79 in 10.0 mi West 4.6 mph - N/A   Clear
7:52 AM 26.1 °F 19.4 °F 18.0 °F 71% 29.77 in 10.0 mi SW 5.8 mph - N/A   Clear
8:52 AM 30.9 °F 22.2 °F 19.0 °F 61% 29.76 in 10.0 mi SSW 10.4 mph - N/A   Clear
9:52 AM 35.1 °F 25.5 °F 19.0 °F 52% 29.76 in 10.0 mi WSW 15.0 mph - N/A   Clear
10:52 AM 37.9 °F 30.0 °F 21.0 °F 51% 29.74 in 10.0 mi SW 12.7 mph - N/A   Clear
11:52 AM 41.0 °F 34.7 °F 16.0 °F 36% 29.72 in 10.0 mi West 10.4 mph - N/A   Clear
12:52 PM 44.1 °F 38.6 °F 15.1 °F 31% 29.68 in 10.0 mi NW 10.4 mph - N/A   Clear
1:52 PM 46.0 °F 41.9 °F 15.1 °F 29% 29.66 in 10.0 mi NW 8.1 mph - N/A   Clear
2:52 PM 48.9 °F - 18.0 °F 29% 29.66 in 10.0 mi WNW 5.8 mph - N/A   Clear
3:52 PM 46.0 °F 41.9 °F 17.1 °F 31% 29.68 in 10.0 mi NE 8.1 mph - N/A   Mostly Cloudy
4:52 PM 41.0 °F 35.8 °F 19.0 °F 41% 29.71 in 10.0 mi ENE 8.1 mph - N/A   Overcast
5:52 PM 37.0 °F 31.6 °F 21.0 °F 52% 29.76 in 10.0 mi ENE 6.9 mph - N/A   Overcast
6:52 PM 34.0 °F 28.0 °F 21.9 °F 61% 29.78 in 10.0 mi East 6.9 mph - N/A   Overcast
7:52 PM 33.1 °F - 25.0 °F 72% 29.77 in 10.0 mi Calm Calm - N/A   Overcast
8:52 PM 33.1 °F - 25.0 °F 72% 29.78 in 10.0 mi Calm Calm - N/A   Overcast
9:52 PM 30.9 °F 26.2 °F 25.0 °F 79% 29.79 in 10.0 mi ENE 4.6 mph - N/A   Overcast
10:52 PM 32.0 °F - 25.0 °F 75% 29.80 in 10.0 mi Calm Calm - N/A   Overcast
11:52 PM 30.9 °F - 26.1 °F 82% 29.81 in 10.0 mi Calm Calm - N/A   Overcast